Weather History for KFWN - June, 2012

Change the Weather History Date:

Saturday, June 2, 2012

  Actual Average Record
Temperature  
Mean Temperature 62 °F -  
Max Temperature 72 °F 76 °F 90 °F (1989)
Min Temperature 51 °F 50 °F 35 °F (1993)
Degree Days  
Heating Degree Days 2    
Growing Degree Days 12 (Base 50)    
Moisture  
Dew Point 56 °F    
Average Humidity 81    
Maximum Humidity 96    
Minimum Humidity 47    
Precipitation  
Precipitation 1.04 in - - ()
Sea Level Pressure  
Sea Level Pressure 29.71 in    
Wind  
Wind Speed 6 mph (North)    
Max Wind Speed 13 mph    
Max Gust Speed 21 mph    
Visibility 7 miles    
Events Rain    
Averages and records for this station are not official NWS values.
T = Trace of Precipitation, MM = Missing Value Source: NWS Daily Summary

Daily Weather History Graph

Daily Weather History Graph

Search for Another Location

Airport or City:

Trip Planner

Search our weather history database for the weather conditions in past years. The results will help you decide how hot, cold, wet, or windy it might be!

Date:

Astronomy

Jun. 02, 2012 Rise Set
Actual Time 5:27 AM EDT 8:26 PM EDT
Civil Twilight 4:54 AM EDT 8:59 PM EDT
Nautical Twilight 4:12 AM EDT 9:41 PM EDT
Astronomical Twilight 3:23 AM EDT 10:30 PM EDT
Moon 6:37 PM EDT (6/2) 3:44 AM EDT (6/2)
Length of Visible Light 16h 04m
Length of Day
14h 58m
Waxing Gibbous, 95% of the Moon is Illuminated
Jun 2
Waxing Gibbous
Jun 4
Full
Jun 11
Last Quarter
Jun 19
New
Jun 26
First Quarter

Hourly Weather History & Observations

Time (EDT) Temp. Dew Point Humidity Pressure Visibility Wind Dir Wind Speed Gust Speed Precip Events Conditions
12:53 AM 61.0 °F 57.9 °F 90% 29.73 in 6.0 mi ENE 8.1 mph - 0.15 in Rain Light Rain
1:13 AM 60.8 °F 57.2 °F 88% 29.72 in 2.5 mi ENE 6.9 mph - 0.09 in Rain Heavy Rain
1:24 AM 60.8 °F 57.2 °F 88% 29.72 in 3.0 mi NE 8.1 mph - 0.15 in Rain Heavy Rain
1:33 AM 60.8 °F 59.0 °F 94% 29.71 in 4.0 mi NE 8.1 mph - 0.19 in Rain Heavy Rain
1:53 AM 61.0 °F 59.0 °F 93% 29.69 in 4.0 mi North 6.9 mph - 0.29 in Rain Heavy Rain
2:01 AM 60.8 °F 59.0 °F 94% 29.72 in 2.5 mi West 12.7 mph 20.7 mph 0.08 in Rain Heavy Rain
2:03 AM 60.8 °F 59.0 °F 94% 29.71 in 1.8 mi NNW 11.5 mph 20.7 mph 0.12 in Rain Heavy Rain
2:09 AM 60.8 °F 59.0 °F 94% 29.72 in 1.5 mi West 6.9 mph 20.7 mph 0.17 in Rain Heavy Rain
2:26 AM 60.8 °F 59.0 °F 94% 29.70 in 3.0 mi NNE 6.9 mph - 0.30 in Rain Heavy Rain
2:40 AM 60.8 °F 59.0 °F 94% 29.69 in 2.5 mi ENE 4.6 mph - 0.39 in Rain Heavy Rain
2:53 AM 60.1 °F 59.0 °F 96% 29.69 in 2.0 mi NE 4.6 mph - 0.50 in Rain Heavy Rain
3:08 AM 60.8 °F 59.0 °F 94% 29.68 in 6.0 mi ENE 4.6 mph - 0.05 in Rain Light Rain
3:21 AM 60.8 °F 59.0 °F 94% 29.68 in 10.0 mi NE 4.6 mph - 0.05 in   Overcast
3:53 AM 61.0 °F 59.0 °F 93% 29.67 in 10.0 mi NNE 4.6 mph - 0.05 in   Overcast
4:16 AM 60.8 °F 59.0 °F 94% 29.67 in 10.0 mi North 5.8 mph - N/A   Overcast
4:43 AM 60.8 °F 59.0 °F 94% 29.67 in 10.0 mi North 5.8 mph - 0.00 in Rain Light Rain
4:53 AM 61.0 °F 59.0 °F 93% 29.67 in 10.0 mi North 5.8 mph - 0.00 in Rain Light Rain
5:28 AM 60.8 °F 57.2 °F 88% 29.68 in 5.0 mi NNE 4.6 mph - 0.01 in Rain Light Rain
5:43 AM 60.8 °F 57.2 °F 88% 29.69 in 5.0 mi WNW 4.6 mph - 0.02 in Rain Light Rain
5:53 AM 60.1 °F 57.9 °F 93% 29.70 in 3.0 mi NW 4.6 mph - 0.04 in Rain Light Rain
5:58 AM 60.8 °F 57.2 °F 88% 29.70 in 2.5 mi NW 3.5 mph - 0.00 in Rain Light Rain
6:04 AM 60.8 °F 57.2 °F 88% 29.70 in 2.5 mi NW 3.5 mph - 0.00 in Rain Light Rain
6:25 AM 60.8 °F 57.2 °F 88% 29.70 in 9.0 mi Calm Calm - 0.01 in   Overcast
6:53 AM 61.0 °F 59.0 °F 93% 29.70 in 10.0 mi ESE 3.5 mph - 0.01 in   Overcast
7:53 AM 62.1 °F 59.0 °F 90% 29.71 in 10.0 mi Calm Calm - N/A   Overcast
8:30 AM 64.4 °F 60.8 °F 88% 29.73 in 10.0 mi Calm Calm - N/A   Overcast
8:46 AM 64.4 °F 60.8 °F 88% 29.73 in 10.0 mi Calm Calm - N/A   Overcast
8:53 AM 64.9 °F 61.0 °F 87% 29.72 in 10.0 mi Calm Calm - N/A   Overcast
9:31 AM 68.0 °F 60.8 °F 78% 29.73 in 10.0 mi West 6.9 mph - N/A   Mostly Cloudy
9:53 AM 68.0 °F 59.0 °F 73% 29.73 in 10.0 mi Calm Calm - N/A   Scattered Clouds
10:53 AM 66.9 °F 55.9 °F 68% 29.73 in 10.0 mi WNW 3.5 mph - N/A   Mostly Cloudy
11:53 AM 70.0 °F 55.0 °F 59% 29.72 in 10.0 mi Variable 3.5 mph - N/A   Mostly Cloudy
12:53 PM 72.0 °F 55.0 °F 55% 29.70 in 10.0 mi Variable 5.8 mph - N/A   Partly Cloudy
1:53 PM 69.1 °F 52.0 °F 54% 29.70 in 10.0 mi Variable 6.9 mph - N/A   Partly Cloudy
2:53 PM 71.1 °F 50.0 °F 47% 29.71 in 10.0 mi SW 6.9 mph - N/A   Partly Cloudy
3:53 PM 69.1 °F 48.9 °F 49% 29.71 in 10.0 mi West 8.1 mph - N/A   Partly Cloudy
4:53 PM 69.1 °F 48.0 °F 47% 29.72 in 10.0 mi West 8.1 mph - N/A   Mostly Cloudy
5:53 PM 66.0 °F 46.9 °F 50% 29.73 in 10.0 mi West 9.2 mph - N/A   Mostly Cloudy
6:53 PM 68.0 °F 46.9 °F 47% 29.73 in 10.0 mi Calm Calm - N/A   Clear
7:53 PM 64.0 °F 44.1 °F 48% 29.74 in 10.0 mi Variable 3.5 mph - N/A   Clear
8:53 PM 57.0 °F 46.9 °F 69% 29.75 in 10.0 mi Calm Calm - N/A   Clear
9:53 PM 55.0 °F 48.9 °F 80% 29.77 in 10.0 mi Calm Calm - N/A   Clear
10:53 PM 53.1 °F 48.9 °F 86% 29.78 in 10.0 mi Calm Calm - N/A   Clear
11:53 PM 51.1 °F 48.9 °F 92% 29.78 in 10.0 mi Calm Calm - N/A   Clear